Regional Weather Roundup
Issued by NWS Sterling, VA

Home | Current Version | Previous Version | Graphics & Text | Print | Product List | Glossary On
Versions: 1 2 3 4 5 6 7 8 9 10 11 12 13 14 15 16 17 18 19 20 21 22 23 24 25 26 27 28 29 30 31 32 33 34 35 36 37 38 39 40 41 42 43 44 45 46 47 48 49 50
000
ASUS41 KLWX 191810
RWRLWX

REGIONAL WEATHER ROUNDUP
NATIONAL WEATHER SERVICE BALTIMORE MD/WASHINGTON DC
100 PM EST FRI DEC 19 2014

Note: "FAIR" indicates few or no clouds below 12,000 feet
with no significant weather and/or obstructions to visibility.
 TC=TEMPERATURE CELSIUS

 * =Non NWS site. Station does not report precipitation (e.g. rain,
    snow, etc.), thunder, or fog.

DCZ001-MDZ009-015-VAZ040>042-051-053>054-191900-
WASHINGTON METRO

CITY           SKY/WX    TMP DP  RH WIND       PRES   REMARKS
WASHINGTON NAT CLOUDY    41  23  48 NW14G21   30.16F
DULLES         CLOUDY    36  23  59 NW12      30.15F WCI  28
ANDREWS AFB    CLOUDY    37  24  58 NW15      30.13F WCI  28
FT BELVOIR     CLOUDY    39  23  53 NW14      30.16F
QUANTICO       PTSUNNY   39  23  52 N14G28    30.17F
COLLEGE PARK*  CLOUDY    37  27  65 NW10G17   30.14F
LEESBURG*      CLOUDY    37  28  70 NW12      30.15F
MANASSAS*      CLOUDY    37  25  60 NW15G23   30.16F WCI  28
GAITHERSBURG*  CLOUDY    37  23  56 NW13G20   30.15F

$$

MDZ006>007-011-014-191900-
BALTIMORE METRO

CITY           SKY/WX    TMP DP  RH WIND       PRES   REMARKS
BWI AIRPORT    PTSUNNY   38  23  55 NW13G20   30.12F
MD SCIENCE CTR   N/A     39  23  52 MISG      30.13F
MARTIN STATE   CLOUDY    39  27  60 W15       30.13F
ANNAPOLIS      CLOUDY    38  25  59 NW12      30.12F
FORT MEADE*    CLOUDY    37  25  60 W10       30.15F

$$

MDZ012-015-019>023-191900-
MARYLAND EASTERN SHORE

CITY           SKY/WX    TMP DP  RH WIND       PRES   REMARKS
OCEAN CITY     CLOUDY    39  26  59 N13       30.10F
SALISBURY      CLOUDY    42  26  53 W14       30.11F
BAY BRIDGE AP*   N/A     37  25  60 NW10      30.13F
EASTON*        CLOUDY    39  28  65 NW12G18   30.15F

$$

MDZ017>025-191900-
SOUTHERN MARYLAND

CITY           SKY/WX    TMP DP  RH WIND       PRES   REMARKS
PATUXENT RIVER CLOUDY    38  24  57 NW17      30.13F WCI  28
ST INIGOES     CLOUDY    39  23  52 W15       30.13F
LEONARDTOWN*   CLOUDY    36  23  60 W9G17     30.15F WCI  29

$$

MDZ003>005-191900-
NORTH CENTRAL MARYLAND

CITY           SKY/WX    TMP DP  RH WIND       PRES   REMARKS
FREDERICK*     PTSUNNY   41  21  45 NW12G21   30.16F
HAGERSTOWN APT CLOUDY    38  23  55 W16       30.12F WCI  29
WESTMINSTER*   CLOUDY    37  23  56 W13       30.09F

$$

MDZ501>502-191900-
WESTERN MARYLAND

CITY           SKY/WX    TMP DP  RH WIND       PRES   REMARKS
OAKLAND*       CLOUDY    23 N/A N/A NW5       30.07S FOG
CUMBERLAND*    CLOUDY    34  23  64 NW10G16   30.21R WCI  26

$$

VAZ025>031-191900-
SHENANDOAH VALLEY

CITY           SKY/WX    TMP DP  RH WIND       PRES   REMARKS
WINCHESTER*    CLOUDY    37  21  52 NW17      30.13F WCI  28
FRONT ROYAL*   CLOUDY    34  23  64 NW7       30.14F
LURAY*         CLOUDY    37  27  65 N9        30.14F
NEW MARKET*    FAIR      36  23  58 N6        30.14F
STAUNTON*      SUNNY     40  25  55 N9        30.12F
WAYNESBORO*    FAIR      37  24  59 CALM      30.10F

$$

WVZ021-048>050-054>055-191900-
EASTERN WEST VIRGINIA PANHANDLE

CITY           SKY/WX    TMP DP  RH WIND       PRES   REMARKS
MARTINSBURG    CLOUDY    37  21  52 W12       30.15S
PETERSBURG*    CLOUDY    36  21  56 W9        30.17F WCI  29

$$

VAZ036>039-050-191900-
CENTRAL FOOTHILLS

CITY           SKY/WX    TMP DP  RH WIND       PRES   REMARKS
CHARLOTTESVILL SUNNY     43  24  47 N9        30.11F
CULPEPER*      PTSUNNY   43  27  52 N8        30.15F
ORANGE*        SUNNY     41  28  60 NW5       30.15F
GORDONSVILLE*  FAIR      42  24  50 NW7       30.12F
WARRENTON*     CLOUDY    41  31  67 NW14      30.14F

$$

VAZ055>057-191900-
NORTH AND CENTRAL PIEDMONT

CITY           SKY/WX    TMP DP  RH WIND       PRES   REMARKS
FREDERICKSBRG* MOSUNNY   43  26  49 NW12      30.14F
STAFFORD*      MOSUNNY   41  23  49 NW10G20   30.19F

$$

NCZ024-NYZ072-PAZ021-071-VAZ022-071-191900-
OTHER REGIONAL OBSERVATIONS

CITY           SKY/WX    TMP DP  RH WIND       PRES   REMARKS
NEW YORK CITY  MOSUNNY   37  19  48 W8G16     30.05F
PHILADELPHIA   PTSUNNY   40  23  50 NW14      30.09S
PITTSBURGH     LGT SNOW  30  26  85 NW8       30.18F FOG     WCI  22
ROANOKE        MOSUNNY   44  23  43 VRB7      30.13F
RICHMOND       MOSUNNY   45  24  43 NW9       30.14F
RALEIGH        MOSUNNY   50  24  36 VRB6      30.13F

$$

ANZ530>537-191900-
MARINE OBSERVATIONS

STATION/POSITION TIME  TEMP    WIND        PRES
                       AIR SEA DIR/SP/G
                 (UTC) (F)     (DEG/KT/KT) (MB)
THOMAS PT LIGHT  1800   37 42  320/ 16/ 19 1021.2F
BALT KEY BRIDGE  1800   38     300/ 15/ 16 1019.7F
COVE POINT       1800   36     330/ 11/ 15 1020.2F
LEWISETTA        1800   38 42  330/ 13/ 17 1020.5S
SOLOMONS ISLAND  1800      44                N/A
PINEY POINT      1800          330/ 14/ 15   N/A

$$




USA.gov is the U.S. government's official web portal to all federal, state and local government web resources and services.